"2017-01-15 00:00:33",817.52
"2017-01-15 00:01:29",818.58
"2017-01-15 00:02:26",818.16
"2017-01-15 00:03:34",818.20
"2017-01-15 00:04:30",818.85
"2017-01-15 00:05:39",819.48
"2017-01-15 00:06:36",819.39
"2017-01-15 00:07:31",820.50
"2017-01-15 00:08:39",820.90
"2017-01-15 00:09:36",820.50
"2017-01-15 00:10:43",821.46
"2017-01-15 00:11:42",821.11
"2017-01-15 00:12:50",821.23
"2017-01-15 00:13:47",820.44
"2017-01-15 00:14:44",820.77
"2017-01-15 00:15:51",819.55
"2017-01-15 00:16:49",820.01
"2017-01-15 00:17:44",820.15
"2017-01-15 00:18:52",819.93
"2017-01-15 00:19:50",820.08
"2017-01-15 00:20:58",821.05
"2017-01-15 00:21:55",820.70
"2017-01-15 00:21:55",820.70
"2017-01-15 00:22:52",820.99
"2017-01-15 00:24:00",821.60
"2017-01-15 00:24:58",821.53
"2017-01-15 00:26:06",821.22
"2017-01-15 00:27:03",821.26
"2017-01-15 00:27:57",820.57
"2017-01-15 00:29:05",820.84
"2017-01-15 00:30:03",820.74
"2017-01-15 00:31:02",821.31
"2017-01-15 00:32:12",820.15
"2017-01-15 00:33:09",819.88
"2017-01-15 00:34:05",820.03
"2017-01-15 00:35:12",819.69
"2017-01-15 00:36:09",820.29
"2017-01-15 00:37:18",820.99
"2017-01-15 00:38:14",821.74
"2017-01-15 00:39:10",821.66
"2017-01-15 00:40:19",821.19
"2017-01-15 00:41:17",821.18
"2017-01-15 00:42:13",821.43
"2017-01-15 00:43:22",821.30
"2017-01-15 00:44:18",820.49
"2017-01-15 00:45:27",820.22
"2017-01-15 00:46:25",820.35
"2017-01-15 00:47:20",820.22
"2017-01-15 00:48:28",820.31
"2017-01-15 00:49:24",820.26
"2017-01-15 00:50:32",819.89
"2017-01-15 00:51:30",819.90
"2017-01-15 00:52:28",819.80
"2017-01-15 00:53:35",820.11
"2017-01-15 00:54:32",820.28
"2017-01-15 00:55:40",820.90
"2017-01-15 00:56:37",820.95
"2017-01-15 00:57:34",820.18
"2017-01-15 00:58:41",820.87
"2017-01-15 00:59:39",820.60
"2017-01-15 01:00:39",820.43
"2017-01-15 01:01:48",820.70
"2017-01-15 01:02:48",820.59
"2017-01-15 01:03:46",821.23
"2017-01-15 01:04:43",821.50
"2017-01-15 01:05:53",821.33
"2017-01-15 01:06:48",821.46
"2017-01-15 01:07:45",821.47
"2017-01-15 01:08:52",821.46
"2017-01-15 01:09:59",821.50
"2017-01-15 01:09:59",821.50
"2017-01-15 01:11:54",821.89
"2017-01-15 01:11:54",821.89
"2017-01-15 01:13:02",821.42
"2017-01-15 01:13:59",821.55
"2017-01-15 01:14:56",821.80
"2017-01-15 01:16:03",821.73
"2017-01-15 01:17:01",821.81
"2017-01-15 01:18:09",821.74
"2017-01-15 01:19:07",821.91
"2017-01-15 01:20:03",821.67
"2017-01-15 01:21:14",821.47
"2017-01-15 01:22:10",821.35
"2017-01-15 01:23:18",821.70
"2017-01-15 01:24:16",821.53
"2017-01-15 01:25:15",821.71
"2017-01-15 01:26:24",821.81
"2017-01-15 01:27:19",822.42
"2017-01-15 01:28:17",822.43
"2017-01-15 01:29:26",822.68
"2017-01-15 01:30:23",822.38
"2017-01-15 01:31:20",822.53
"2017-01-15 01:32:29",821.92
"2017-01-15 01:33:28",821.93
"2017-01-15 01:34:26",821.86
"2017-01-15 01:35:22",821.78
"2017-01-15 01:36:31",821.46
"2017-01-15 01:37:29",820.92
"2017-01-15 01:38:27",820.54
"2017-01-15 01:39:37",820.87
"2017-01-15 01:40:34",820.61
"2017-01-15 01:41:41",820.46
"2017-01-15 01:42:38",820.30
"2017-01-15 01:43:35",820.03
"2017-01-15 01:44:43",819.78
"2017-01-15 01:45:39",819.99
"2017-01-15 01:46:36",820.07
"2017-01-15 01:47:44",820.10
"2017-01-15 01:48:51",819.75
"2017-01-15 01:49:48",819.95
"2017-01-15 01:50:45",819.61
"2017-01-15 01:51:52",819.47
"2017-01-15 01:52:50",819.90
"2017-01-15 01:53:58",819.89
"2017-01-15 01:54:55",820.45
"2017-01-15 01:54:55",820.45
"2017-01-15 01:55:50",820.67
"2017-01-15 01:56:59",820.40
"2017-01-15 01:57:57",820.75
"2017-01-15 01:58:55",820.37
"2017-01-15 02:00:04",820.55
"2017-01-15 02:01:01",820.41
"2017-01-15 02:01:58",820.01
"2017-01-15 02:03:05",820.40
"2017-01-15 02:04:03",820.73
"2017-01-15 02:04:59",819.89
"2017-01-15 02:06:07",819.64
"2017-01-15 02:07:05",819.93
"2017-01-15 02:08:02",820.08
"2017-01-15 02:09:10",820.41
"2017-01-15 02:10:05",820.24
"2017-01-15 02:11:14",820.25
"2017-01-15 02:12:10",820.43
"2017-01-15 02:13:08",820.15
"2017-01-15 02:14:17",820.21
"2017-01-15 02:15:14",820.16
"2017-01-15 02:16:10",820.25
"2017-01-15 02:17:19",819.91
"2017-01-15 02:18:16",819.44
"2017-01-15 02:19:13",819.76
"2017-01-15 02:20:21",819.52
"2017-01-15 02:21:18",819.84
"2017-01-15 02:22:26",819.43
"2017-01-15 02:23:24",818.99
"2017-01-15 02:24:20",818.73
"2017-01-15 02:25:27",817.88
"2017-01-15 02:26:22",818.33
"2017-01-15 02:27:31",818.45
"2017-01-15 02:28:28",817.81
"2017-01-15 02:29:23",817.57
"2017-01-15 02:30:32",817.11
"2017-01-15 02:31:28",817.65
"2017-01-15 02:32:37",818.16
"2017-01-15 02:33:33",817.10
"2017-01-15 02:34:28",817.07
"2017-01-15 02:35:37",817.35
"2017-01-15 02:36:35",818.07
"2017-01-15 02:37:42",817.73
"2017-01-15 02:38:40",817.91
"2017-01-15 02:39:36",817.89
"2017-01-15 02:40:44",817.57
"2017-01-15 02:41:41",817.78
"2017-01-15 02:42:37",817.80
"2017-01-15 02:43:45",817.80
"2017-01-15 02:44:40",818.16
"2017-01-15 02:45:48",817.95
"2017-01-15 02:46:45",817.97
"2017-01-15 02:47:42",817.70
"2017-01-15 02:48:50",817.96
"2017-01-15 02:49:47",817.80
"2017-01-15 02:50:54",817.85
"2017-01-15 02:51:51",817.82
"2017-01-15 02:52:48",818.16
"2017-01-15 02:53:55",817.36
"2017-01-15 02:54:51",816.83
"2017-01-15 02:54:51",816.83
"2017-01-15 02:55:59",817.18
"2017-01-15 02:56:54",817.62
"2017-01-15 02:58:02",817.69
"2017-01-15 02:58:58",818.17
"2017-01-15 03:00:06",818.38
"2017-01-15 03:01:03",817.47
"2017-01-15 03:02:01",817.43
"2017-01-15 03:03:10",817.41
"2017-01-15 03:04:08",817.11
"2017-01-15 03:05:04",817.37
"2017-01-15 03:06:03",817.42
"2017-01-15 03:07:10",817.36
"2017-01-15 03:08:08",817.82
"2017-01-15 03:09:16",817.53
"2017-01-15 03:10:12",817.51
"2017-01-15 03:11:18",817.24
"2017-01-15 03:12:15",816.47
"2017-01-15 03:13:11",816.32
"2017-01-15 03:14:18",815.93
"2017-01-15 03:15:14",815.84
"2017-01-15 03:16:23",815.77
"2017-01-15 03:17:21",815.76
"2017-01-15 03:18:18",815.81
"2017-01-15 03:19:27",815.85
"2017-01-15 03:20:24",816.23
"2017-01-15 03:21:22",815.95
"2017-01-15 03:22:30",816.32
"2017-01-15 03:23:27",815.91
"2017-01-15 03:24:34",816.36
"2017-01-15 03:25:29",816.14
"2017-01-15 03:26:27",816.34
"2017-01-15 03:27:35",816.23
"2017-01-15 03:28:32",816.52
"2017-01-15 03:29:41",815.67
"2017-01-15 03:30:37",815.74
"2017-01-15 03:31:36",816.28
"2017-01-15 03:32:44",816.15
"2017-01-15 03:33:41",817.27
"2017-01-15 03:34:36",817.55
"2017-01-15 03:35:43",817.36
"2017-01-15 03:36:43",817.19
"2017-01-15 03:37:40",817.06
"2017-01-15 03:38:49",817.53
"2017-01-15 03:39:47",818.06
"2017-01-15 03:40:44",817.59
"2017-01-15 03:41:53",817.34
"2017-01-15 03:42:51",817.40
"2017-01-15 03:43:57",817.32
"2017-01-15 03:44:53",817.32
"2017-01-15 03:45:50",818.52
"2017-01-15 03:45:50",818.52
"2017-01-15 03:46:59",819.52
"2017-01-15 03:48:07",820.20
"2017-01-15 03:49:04",819.64
"2017-01-15 03:50:02",819.80
"2017-01-15 03:51:10",819.10
"2017-01-15 03:52:09",819.07
"2017-01-15 03:53:07",819.25
"2017-01-15 03:54:03",819.33
"2017-01-15 03:55:10",819.72
"2017-01-15 03:56:07",819.80
"2017-01-15 03:57:16",820.14
"2017-01-15 03:58:14",820.33
"2017-01-15 03:59:10",820.51
"2017-01-15 04:00:18",820.22
"2017-01-15 04:01:15",820.98
"2017-01-15 04:02:25",820.62
"2017-01-15 04:03:23",820.26
"2017-01-15 04:04:18",820.38
"2017-01-15 04:05:26",820.28
"2017-01-15 04:06:24",821.17
"2017-01-15 04:07:30",821.15
"2017-01-15 04:08:27",821.01
"2017-01-15 04:09:34",820.85
"2017-01-15 04:10:31",820.85
"2017-01-15 04:11:29",820.84
"2017-01-15 04:12:37",820.98
"2017-01-15 04:13:33",821.09
"2017-01-15 04:14:42",820.80
"2017-01-15 04:15:39",820.47
"2017-01-15 04:16:37",820.28
"2017-01-15 04:17:45",820.41
"2017-01-15 04:18:42",820.44
"2017-01-15 04:19:39",820.27
"2017-01-15 04:20:48",820.02
"2017-01-15 04:21:45",819.92
"2017-01-15 04:22:54",820.01
"2017-01-15 04:23:51",820.01
"2017-01-15 04:24:47",820.18
"2017-01-15 04:25:55",820.77
"2017-01-15 04:26:52",820.27
"2017-01-15 04:27:51",820.61
"2017-01-15 04:27:51",820.61
"2017-01-15 04:29:00",820.61
"2017-01-15 04:29:55",820.58
"2017-01-15 04:30:54",820.75
"2017-01-15 04:32:03",820.57
"2017-01-15 04:32:59",820.58
"2017-01-15 04:34:07",819.63
"2017-01-15 04:35:03",819.58
"2017-01-15 04:36:00",819.54
"2017-01-15 04:37:08",819.57
"2017-01-15 04:38:05",819.52
"2017-01-15 04:39:13",819.59
"2017-01-15 04:40:08",819.70
"2017-01-15 04:41:17",819.90
"2017-01-15 04:42:15",819.93
"2017-01-15 04:43:12",819.84
"2017-01-15 04:44:19",819.95
"2017-01-15 04:45:15",820.28
"2017-01-15 04:46:15",820.74
"2017-01-15 04:47:24",820.74
"2017-01-15 04:48:21",819.26
"2017-01-15 04:49:19",818.73
"2017-01-15 04:50:26",819.00
"2017-01-15 04:51:23",818.46
"2017-01-15 04:52:29",818.55
"2017-01-15 04:53:27",818.55
"2017-01-15 04:54:23",818.60
"2017-01-15 04:55:31",818.73
"2017-01-15 04:56:29",818.78
"2017-01-15 04:57:38",818.27
"2017-01-15 04:58:34",818.72
"2017-01-15 04:59:31",818.71
"2017-01-15 05:00:41",818.39
"2017-01-15 05:01:40",817.97
"2017-01-15 05:02:50",818.21
"2017-01-15 05:03:49",817.92
"2017-01-15 05:04:45",817.86
"2017-01-15 05:05:53",818.14
"2017-01-15 05:06:50",818.00
"2017-01-15 05:07:57",817.96
"2017-01-15 05:08:54",817.98
"2017-01-15 05:08:54",817.98
"2017-01-15 05:09:52",818.44
"2017-01-15 05:11:00",818.30
"2017-01-15 05:11:57",817.97
"2017-01-15 05:13:05",818.20
"2017-01-15 05:14:04",818.13
"2017-01-15 05:15:00",818.19
"2017-01-15 05:15:58",818.36
"2017-01-15 05:17:08",818.81
"2017-01-15 05:18:06",818.73
"2017-01-15 05:19:05",818.80
"2017-01-15 05:20:13",818.35
"2017-01-15 05:21:11",818.35
"2017-01-15 05:22:19",818.55
"2017-01-15 05:23:15",818.64
"2017-01-15 05:24:11",818.40
"2017-01-15 05:25:18",818.30
"2017-01-15 05:26:16",818.08
"2017-01-15 05:27:14",818.54
"2017-01-15 05:28:21",818.77
"2017-01-15 05:29:18",818.60
"2017-01-15 05:30:25",818.65
"2017-01-15 05:31:24",818.63
"2017-01-15 05:32:21",818.14
"2017-01-15 05:33:30",818.22
"2017-01-15 05:34:25",818.18
"2017-01-15 05:35:32",818.02
"2017-01-15 05:36:29",818.18
"2017-01-15 05:37:38",818.31
"2017-01-15 05:38:35",818.21
"2017-01-15 05:39:31",818.00
"2017-01-15 05:40:38",818.13
"2017-01-15 05:41:36",818.09
"2017-01-15 05:42:43",818.01
"2017-01-15 05:43:52",817.95
"2017-01-15 05:44:49",818.02
"2017-01-15 05:45:45",817.37
"2017-01-15 05:46:43",817.34
"2017-01-15 05:47:51",816.80
"2017-01-15 05:48:58",816.01
"2017-01-15 05:49:55",816.87
"2017-01-15 05:49:55",816.87
"2017-01-15 05:50:51",816.80
"2017-01-15 05:52:00",817.07
"2017-01-15 05:52:57",816.43
"2017-01-15 05:54:06",815.93
"2017-01-15 05:55:04",816.37
"2017-01-15 05:56:12",816.66
"2017-01-15 05:57:08",817.22
"2017-01-15 05:58:05",816.22
"2017-01-15 05:59:13",815.15
"2017-01-15 06:00:10",815.02
"2017-01-15 06:01:17",814.83
"2017-01-15 06:02:15",814.66
"2017-01-15 06:03:12",813.90
"2017-01-15 06:04:20",813.72
"2017-01-15 06:05:18",813.62
"2017-01-15 06:06:13",814.34
"2017-01-15 06:07:21",813.64
"2017-01-15 06:08:17",813.86
"2017-01-15 06:09:24",813.89
"2017-01-15 06:10:20",813.83
"2017-01-15 06:11:29",814.42
"2017-01-15 06:12:26",814.20
"2017-01-15 06:13:23",814.28
"2017-01-15 06:14:32",814.00
"2017-01-15 06:15:31",814.16
"2017-01-15 06:16:26",813.42
"2017-01-15 06:17:33",812.28
"2017-01-15 06:18:29",812.03
"2017-01-15 06:19:38",812.22
"2017-01-15 06:20:35",812.15
"2017-01-15 06:21:41",811.77
"2017-01-15 06:22:39",811.29
"2017-01-15 06:23:36",811.14
"2017-01-15 06:24:42",811.63
"2017-01-15 06:25:39",811.65
"2017-01-15 06:26:46",813.18
"2017-01-15 06:27:40",812.47
"2017-01-15 06:28:48",813.07
"2017-01-15 06:29:44",812.94
"2017-01-15 06:30:51",813.41
"2017-01-15 06:31:48",813.71
"2017-01-15 06:32:55",813.82
"2017-01-15 06:33:51",813.20
"2017-01-15 06:34:48",812.98
"2017-01-15 06:35:57",813.30
"2017-01-15 06:36:53",812.70
"2017-01-15 06:36:53",812.70
"2017-01-15 06:37:49",812.70
"2017-01-15 06:38:57",813.36
"2017-01-15 06:39:53",813.42
"2017-01-15 06:41:02",813.23
"2017-01-15 06:41:58",814.04
"2017-01-15 06:43:05",814.15
"2017-01-15 06:44:02",814.43
"2017-01-15 06:45:09",814.86
"2017-01-15 06:46:05",815.23
"2017-01-15 06:47:02",815.00
"2017-01-15 06:48:00",815.59
"2017-01-15 06:49:09",815.26
"2017-01-15 06:50:05",814.44
"2017-01-15 06:51:13",815.27
"2017-01-15 06:52:11",815.08
"2017-01-15 06:53:08",814.16
"2017-01-15 06:54:15",814.73
"2017-01-15 06:55:13",814.93
"2017-01-15 06:56:20",814.01
"2017-01-15 06:57:16",814.47
"2017-01-15 06:58:25",814.78
"2017-01-15 06:59:20",814.83
"2017-01-15 07:00:17",814.83
"2017-01-15 07:01:25",814.57
"2017-01-15 07:02:23",815.01
"2017-01-15 07:03:32",814.45
"2017-01-15 07:04:30",814.82
"2017-01-15 07:05:27",814.65
"2017-01-15 07:06:37",814.89
"2017-01-15 07:07:34",814.96
"2017-01-15 07:08:30",814.95
"2017-01-15 07:09:39",814.42
"2017-01-15 07:10:35",814.44
"2017-01-15 07:11:44",814.69
"2017-01-15 07:12:40",814.01
"2017-01-15 07:13:47",814.01
"2017-01-15 07:14:44",812.20
"2017-01-15 07:15:42",812.83
"2017-01-15 07:16:51",813.35
"2017-01-15 07:17:47",813.35
"2017-01-15 07:18:53",813.24
"2017-01-15 07:19:48",813.24
"2017-01-15 07:20:45",812.81
"2017-01-15 07:21:51",812.93
"2017-01-15 07:22:48",812.53
"2017-01-15 07:23:55",812.91
"2017-01-15 07:23:55",812.91
"2017-01-15 07:24:53",813.00
"2017-01-15 07:26:00",813.87
"2017-01-15 07:26:56",813.88
"2017-01-15 07:28:04",813.63
"2017-01-15 07:29:01",813.90
"2017-01-15 07:29:57",813.69
"2017-01-15 07:31:03",813.43
"2017-01-15 07:32:01",813.46
"2017-01-15 07:33:08",813.45
"2017-01-15 07:34:06",813.26
"2017-01-15 07:35:01",812.68
"2017-01-15 07:36:09",812.80
"2017-01-15 07:37:06",811.96
"2017-01-15 07:38:14",811.92
"2017-01-15 07:39:08",811.92
"2017-01-15 07:40:16",810.91
"2017-01-15 07:41:12",811.71
"2017-01-15 07:42:18",811.52
"2017-01-15 07:43:15",811.29
"2017-01-15 07:44:24",810.88
"2017-01-15 07:45:19",810.30
"2017-01-15 07:46:27",809.17
"2017-01-15 07:47:24",810.54
"2017-01-15 07:48:30",811.33
"2017-01-15 07:49:28",811.63
"2017-01-15 07:50:25",811.84
"2017-01-15 07:51:33",811.62
"2017-01-15 07:52:29",812.36
"2017-01-15 07:53:25",813.08
"2017-01-15 07:54:32",812.66
"2017-01-15 07:55:29",813.08
"2017-01-15 07:56:36",812.87
"2017-01-15 07:57:34",812.57
"2017-01-15 07:58:41",812.42
"2017-01-15 07:59:38",812.70
"2017-01-15 08:00:34",813.04
"2017-01-15 08:01:42",812.89
"2017-01-15 08:02:37",813.45
"2017-01-15 08:03:43",813.54
"2017-01-15 08:04:39",813.53
"2017-01-15 08:05:47",813.36
"2017-01-15 08:06:44",814.21
"2017-01-15 08:07:52",814.20
"2017-01-15 08:08:49",813.14
"2017-01-15 08:09:48",813.50
"2017-01-15 08:10:56",813.54
"2017-01-15 08:11:52",814.33
"2017-01-15 08:12:48",814.23
"2017-01-15 08:13:56",813.49
"2017-01-15 08:14:53",814.05
"2017-01-15 08:15:51",813.75
"2017-01-15 08:15:51",813.75
"2017-01-15 08:16:59",812.41
"2017-01-15 08:17:55",812.66
"2017-01-15 08:19:03",812.51
"2017-01-15 08:20:00",812.42
"2017-01-15 08:20:59",812.80
"2017-01-15 08:22:05",813.19
"2017-01-15 08:23:01",813.30
"2017-01-15 08:24:09",813.95
"2017-01-15 08:25:06",814.37
"2017-01-15 08:26:02",814.85
"2017-01-15 08:27:08",814.60
"2017-01-15 08:28:06",815.82
"2017-01-15 08:29:14",814.80
"2017-01-15 08:30:10",815.32
"2017-01-15 08:31:18",815.30
"2017-01-15 08:32:14",815.29
"2017-01-15 08:33:21",815.11
"2017-01-15 08:34:16",814.52
"2017-01-15 08:35:14",814.91
"2017-01-15 08:36:23",815.04
"2017-01-15 08:37:18",814.63
"2017-01-15 08:38:27",815.23
"2017-01-15 08:39:23",815.12
"2017-01-15 08:40:31",814.82
"2017-01-15 08:41:28",815.03
"2017-01-15 08:42:24",814.39
"2017-01-15 08:43:32",814.26
"2017-01-15 08:44:26",815.11
"2017-01-15 08:45:34",815.44
"2017-01-15 08:46:31",815.32
"2017-01-15 08:47:38",815.48
"2017-01-15 08:48:34",815.07
"2017-01-15 08:49:43",815.09
"2017-01-15 08:50:40",814.38
"2017-01-15 08:51:48",814.75
"2017-01-15 08:52:45",814.89
"2017-01-15 08:53:41",814.92
"2017-01-15 08:54:49",814.43
"2017-01-15 08:55:44",814.21
"2017-01-15 08:56:53",814.27
"2017-01-15 08:57:49",813.86
"2017-01-15 08:58:56",814.65
"2017-01-15 08:59:53",813.79
"2017-01-15 09:00:50",813.99
"2017-01-15 09:00:50",813.99
"2017-01-15 09:01:59",814.64
"2017-01-15 09:02:56",813.88
"2017-01-15 09:03:52",813.67
"2017-01-15 09:05:00",814.73
"2017-01-15 09:05:55",814.63
"2017-01-15 09:07:03",814.13
"2017-01-15 09:08:00",814.75
"2017-01-15 09:09:07",814.00
"2017-01-15 09:10:05",814.77
"2017-01-15 09:11:15",814.07
"2017-01-15 09:12:13",814.14
"2017-01-15 09:13:10",814.15
"2017-01-15 09:14:18",814.07
"2017-01-15 09:15:16",814.16
"2017-01-15 09:16:12",814.20
"2017-01-15 09:17:20",813.94
"2017-01-15 09:18:18",814.52
"2017-01-15 09:19:16",814.51
"2017-01-15 09:20:24",814.83
"2017-01-15 09:21:20",814.73
"2017-01-15 09:22:27",814.74
"2017-01-15 09:23:24",814.77
"2017-01-15 09:24:31",815.06
"2017-01-15 09:25:27",814.82
"2017-01-15 09:26:22",814.74
"2017-01-15 09:27:30",814.75
"2017-01-15 09:28:27",814.83
"2017-01-15 09:29:35",814.85
"2017-01-15 09:30:31",815.64
"2017-01-15 09:31:40",815.26
"2017-01-15 09:32:37",815.13
"2017-01-15 09:33:36",815.72
"2017-01-15 09:34:43",815.27
"2017-01-15 09:35:40",815.74
"2017-01-15 09:36:47",815.42
"2017-01-15 09:37:41",815.63
"2017-01-15 09:38:39",816.01
"2017-01-15 09:39:46",816.14
"2017-01-15 09:40:51",815.93
"2017-01-15 09:41:47",816.25
"2017-01-15 09:42:55",816.01
"2017-01-15 09:43:51",816.14
"2017-01-15 09:44:49",816.36
"2017-01-15 09:44:49",816.36
"2017-01-15 09:45:57",817.29
"2017-01-15 09:46:55",818.50
"2017-01-15 09:48:04",818.14
"2017-01-15 09:48:59",818.28
"2017-01-15 09:49:57",817.88
"2017-01-15 09:51:04",818.10
"2017-01-15 09:52:01",817.71
"2017-01-15 09:53:10",818.22
"2017-01-15 09:54:08",818.13
"2017-01-15 09:55:05",818.29
"2017-01-15 09:56:13",818.23
"2017-01-15 09:57:08",818.72
"2017-01-15 09:58:17",818.98
"2017-01-15 09:59:13",818.32
"2017-01-15 10:00:24",818.66
"2017-01-15 10:01:21",818.98
"2017-01-15 10:02:30",818.86
"2017-01-15 10:03:27",819.11
"2017-01-15 10:04:24",819.33
"2017-01-15 10:05:32",818.66
"2017-01-15 10:06:29",819.29
"2017-01-15 10:07:28",819.66
"2017-01-15 10:08:35",819.87
"2017-01-15 10:09:30",819.68
"2017-01-15 10:10:38",819.70
"2017-01-15 10:11:35",820.32
"2017-01-15 10:12:43",819.95
"2017-01-15 10:13:41",820.32
"2017-01-15 10:14:39",819.43
"2017-01-15 10:15:48",820.43
"2017-01-15 10:16:45",820.73
"2017-01-15 10:17:54",820.86
"2017-01-15 10:18:50",821.46
"2017-01-15 10:19:59",821.83
"2017-01-15 10:19:59",821.83
"2017-01-15 10:20:55",821.44
"2017-01-15 10:21:51",821.93
"2017-01-15 10:23:01",821.20
"2017-01-15 10:23:58",820.81
"2017-01-15 10:25:06",821.45
"2017-01-15 10:26:04",821.08
"2017-01-15 10:27:12",821.76
"2017-01-15 10:28:09",821.40
"2017-01-15 10:29:17",821.44
"2017-01-15 10:30:14",821.28
"2017-01-15 10:31:10",822.07
"2017-01-15 10:32:18",822.11
"2017-01-15 10:33:14",821.74
"2017-01-15 10:34:21",821.20
"2017-01-15 10:35:18",821.14
"2017-01-15 10:36:26",821.34
"2017-01-15 10:37:22",821.30
"2017-01-15 10:38:30",820.84
"2017-01-15 10:39:27",820.94
"2017-01-15 10:40:24",821.05
"2017-01-15 10:41:32",820.72
"2017-01-15 10:42:26",820.71
"2017-01-15 10:43:34",820.70
"2017-01-15 10:44:31",820.75
"2017-01-15 10:45:39",820.88
"2017-01-15 10:46:35",820.94
"2017-01-15 10:47:42",821.04
"2017-01-15 10:48:40",821.19
"2017-01-15 10:49:37",821.13
"2017-01-15 10:50:44",821.34
"2017-01-15 10:51:41",820.54
"2017-01-15 10:52:50",821.03
"2017-01-15 10:53:45",820.95
"2017-01-15 10:54:41",820.97
"2017-01-15 10:55:50",821.05
"2017-01-15 10:56:47",820.66
"2017-01-15 10:57:56",820.14
"2017-01-15 10:58:52",820.03
"2017-01-15 11:00:00",820.30
"2017-01-15 11:00:00",820.30
"2017-01-15 11:00:59",819.79
"2017-01-15 11:01:57",819.83
"2017-01-15 11:02:54",819.68
"2017-01-15 11:04:02",819.65
"2017-01-15 11:05:02",819.18
"2017-01-15 11:06:00",819.31
"2017-01-15 11:07:09",819.08
"2017-01-15 11:08:07",819.61
"2017-01-15 11:09:05",819.61
"2017-01-15 11:10:02",819.94
"2017-01-15 11:11:13",820.18
"2017-01-15 11:12:08",820.11
"2017-01-15 11:13:06",820.21
"2017-01-15 11:14:14",820.27
"2017-01-15 11:15:13",819.79
"2017-01-15 11:16:11",819.44
"2017-01-15 11:17:20",818.91
"2017-01-15 11:18:17",818.77
"2017-01-15 11:19:15",818.83
"2017-01-15 11:20:12",819.17
"2017-01-15 11:21:19",818.93
"2017-01-15 11:22:16",818.98
"2017-01-15 11:23:24",818.99
"2017-01-15 11:24:22",818.71
"2017-01-15 11:25:30",818.53
"2017-01-15 11:26:29",818.78
"2017-01-15 11:27:37",818.88
"2017-01-15 11:28:33",818.68
"2017-01-15 11:29:30",818.64
"2017-01-15 11:30:38",818.59
"2017-01-15 11:31:33",818.64
"2017-01-15 11:32:29",818.44
"2017-01-15 11:33:36",818.25
"2017-01-15 11:34:33",818.37
"2017-01-15 11:35:40",818.23
"2017-01-15 11:36:38",818.24
"2017-01-15 11:37:46",818.20
"2017-01-15 11:38:42",818.10
"2017-01-15 11:39:39",818.10
"2017-01-15 11:40:48",818.01
"2017-01-15 11:41:44",818.34
"2017-01-15 11:42:53",818.19
"2017-01-15 11:43:51",818.11
"2017-01-15 11:44:59",818.03
"2017-01-15 11:44:59",818.03
"2017-01-15 11:45:56",818.02
"2017-01-15 11:47:05",817.78
"2017-01-15 11:48:06",817.78
"2017-01-15 11:49:05",817.90
"2017-01-15 11:50:13",818.43
"2017-01-15 11:51:10",817.84
"2017-01-15 11:52:19",817.67
"2017-01-15 11:53:16",817.65
"2017-01-15 11:54:24",817.58
"2017-01-15 11:55:20",817.81
"2017-01-15 11:56:18",817.86
"2017-01-15 11:57:26",817.40
"2017-01-15 11:58:24",817.77
"2017-01-15 11:59:21",817.73
"2017-01-15 12:00:28",817.76
"2017-01-15 12:01:26",817.45
"2017-01-15 12:02:33",818.45
"2017-01-15 12:03:29",817.87
"2017-01-15 12:04:37",817.90
"2017-01-15 12:05:32",817.92
"2017-01-15 12:06:29",817.87
"2017-01-15 12:07:37",818.32
"2017-01-15 12:08:34",818.32
"2017-01-15 12:09:32",818.20
"2017-01-15 12:10:42",818.84
"2017-01-15 12:11:38",818.91
"2017-01-15 12:12:36",819.12
"2017-01-15 12:13:43",820.56
"2017-01-15 12:14:39",820.55
"2017-01-15 12:15:37",820.94
"2017-01-15 12:16:46",820.26
"2017-01-15 12:17:42",820.24
"2017-01-15 12:18:50",820.52
"2017-01-15 12:19:47",820.85
"2017-01-15 12:20:44",820.31
"2017-01-15 12:21:52",819.99
"2017-01-15 12:22:48",820.35
"2017-01-15 12:23:56",820.27
"2017-01-15 12:24:52",820.44
"2017-01-15 12:25:49",820.44
"2017-01-15 12:26:58",820.18
"2017-01-15 12:26:58",820.18
"2017-01-15 12:27:56",820.25
"2017-01-15 12:29:04",820.25
"2017-01-15 12:30:01",820.44
"2017-01-15 12:31:08",820.26
"2017-01-15 12:32:06",820.35
"2017-01-15 12:33:03",821.42
"2017-01-15 12:34:12",821.44
"2017-01-15 12:35:08",821.48
"2017-01-15 12:36:16",821.56
"2017-01-15 12:37:13",821.51
"2017-01-15 12:38:19",821.23
"2017-01-15 12:39:15",820.85
"2017-01-15 12:40:14",820.47
"2017-01-15 12:41:21",820.97
"2017-01-15 12:42:17",820.74
"2017-01-15 12:43:15",820.59
"2017-01-15 12:44:23",820.43
"2017-01-15 12:45:19",820.04
"2017-01-15 12:46:28",819.74
"2017-01-15 12:47:24",819.39
"2017-01-15 12:48:22",819.90
"2017-01-15 12:49:29",820.49
"2017-01-15 12:50:28",820.71
"2017-01-15 12:51:25",820.49
"2017-01-15 12:52:33",820.56
"2017-01-15 12:53:39",820.09
"2017-01-15 12:54:35",820.04
"2017-01-15 12:55:44",820.37
"2017-01-15 12:56:39",820.41
"2017-01-15 12:57:37",820.37
"2017-01-15 12:58:45",820.00
"2017-01-15 12:59:42",820.00
"2017-01-15 13:00:53",820.62
"2017-01-15 13:01:52",820.65
"2017-01-15 13:02:59",820.75
"2017-01-15 13:02:59",820.75
"2017-01-15 13:03:56",820.83
"2017-01-15 13:04:55",820.37
"2017-01-15 13:05:51",819.88
"2017-01-15 13:07:02",820.52
"2017-01-15 13:08:00",820.22
"2017-01-15 13:09:08",820.24
"2017-01-15 13:10:06",820.14
"2017-01-15 13:11:15",820.34
"2017-01-15 13:12:13",820.38
"2017-01-15 13:13:12",820.23
"2017-01-15 13:14:19",819.84
"2017-01-15 13:15:19",820.34
"2017-01-15 13:16:16",820.43
"2017-01-15 13:17:14",820.76
"2017-01-15 13:18:23",820.76
"2017-01-15 13:19:20",820.85
"2017-01-15 13:20:27",820.17
"2017-01-15 13:21:25",819.41
"2017-01-15 13:22:23",819.20
"2017-01-15 13:23:31",820.35
"2017-01-15 13:24:28",820.00
"2017-01-15 13:25:24",819.47
"2017-01-15 13:26:32",819.91
"2017-01-15 13:27:31",820.12
"2017-01-15 13:28:39",820.64
"2017-01-15 13:29:36",820.31
"2017-01-15 13:30:34",820.36
"2017-01-15 13:31:33",820.26
"2017-01-15 13:32:41",819.90
"2017-01-15 13:33:38",820.22
"2017-01-15 13:34:45",820.40
"2017-01-15 13:35:41",820.18
"2017-01-15 13:36:37",820.55
"2017-01-15 13:37:46",820.37
"2017-01-15 13:38:44",820.23
"2017-01-15 13:39:44",820.31
"2017-01-15 13:40:43",819.76
"2017-01-15 13:41:51",818.47
"2017-01-15 13:42:48",819.33
"2017-01-15 13:43:55",819.22
"2017-01-15 13:44:51",818.65
"2017-01-15 13:45:47",819.41
"2017-01-15 13:46:55",819.07